Orbital Elements at Epoch 2459200.5 (2020-Dec-17.0) TDB
Reference: JPL 19 (heliocentric ecliptic J2000)
Element | Value | Uncertainty (1-sigma) | Units |
e | .04187005291131835 | 6.495e-08 | |
a | 2.81377436488463 | 2.7816e-08 | au |
q | 2.695961483346399 | 1.8883e-07 | au |
i | 4.346622054192705 | 6.9593e-06 | deg |
node | 150.101132304396 | 7.2706e-05 | deg |
peri | 352.415169369981 | 0.0001096 | deg |
M | 43.16997999481527 | 7.9018e-05 | deg |
tp | 2458993.766110059362 (2020-May-24.26611006) | 0.00037851 | TDB |
period | 1723.980423145162 4.72 | 2.5564e-05 6.999e-08 | d yr |
n | .208819076578161 | 3.0965e-09 | deg/d |
Q | 2.93158724642286 | 2.8981e-08 | au |
|
| | Orbit Determination Parameters
Additional Information
|